Location: Newark
(48.1236°N, 0.7169°W)
Time: 18:31:27
(UTC+00:00)

Envisat - Pass Details

Date: 26 November 2019
Orbit: 764 x 766 km, 98.1° (Epoch: 14 December)

Event Time Altitude Azimuth Distance (km) Brightness Sun altitude
Rises 06:37:59 0° 17° (NNE) 3,243 6.2 -7.8°
Reaches altitude 10° 06:40:22 10° 22° (NNE) 2,312 5.5 -7.4°
Maximum altitude 06:45:21 54° 100° (E) 928 3.9 -6.7°
Drops below altitude 10° 06:50:18 10° 178° (S) 2,295 5.9 -5.9°
Sets 06:52:39 0° 182° (S) 3,216 6.6 -5.6°
